STARLINK-32050 (60137 NORAD) Tracking and Keplerian Element Data

This shows tracking and keplerian element data for the satellite.

Feedback or suggestion? Click here.




ElementValue
Catalog60137
NameSTARLINK-32050
Epoch Orbit1766
Epoch Day286.03611573
Epoch Year2024
RAAN190.7643
Inclination53.1578
Eccentricity8.47E-05
Argument of Perigee89.6026
Mean Anonmoly270.5076
Mean Motion15.39576013
Decay Rate0.00148896
L11 60137U 24120C 24286.03611573 .00148896 00000+0 36654-2 0 9995
L22 60137 53.1578 190.7643 0000847 89.6026 270.5076 15.39576013 17665



Live tracking and technical data element details for STARLINK-32050 (NORAD 60137). STARLINK-32050 can be tracked NOW for your location showing map with azimuth and elevation plus other details from your city location.







IsCatalogInMostPopularTable: catalog: 60137, numindb: 8
Update: records affected: 1



GetName: 60137 STARLINK-32050

Hit Count: updated at: Thu, 23 Jan 2025 12:56:20 GMT